Location: Harwich
(41.7160°N, 69.9939°W)
Time: 15:48:41
(UTC+01:00)

Transit 2A - Visible Passes

Search period start: 29 January 2023 00:00
Search period end: 08 February 2023 00:00
Orbit: 594 x 962 km, 66.7° (Epoch: 29 January)

Date Brightness Start Highest point End Pass type
(mag) Time Alt. Az. Time Alt. Az. Time Alt. Az.
29 Jan 5.8 00:07:08 10° SSW 00:11:49 84° WNW 00:16:45 12° NNE visible
29 Jan 8.4 01:53:03 10° WNW 01:55:58 15° NW 01:57:16 14° NNW visible
29 Jan 5.9 23:32:44 10° SSW 23:37:21 65° ESE 23:42:32 10° NE visible
30 Jan 8.1 01:17:28 10° W 01:21:07 20° NW 01:24:19 12° N visible
31 Jan 7.7 00:42:11 10° WSW 00:46:19 27° NW 00:50:51 10° NNE visible
01 Feb 7.2 00:07:08 10° WSW 00:11:36 38° NW 00:16:34 10° NNE visible
01 Feb 6.6 23:32:18 10° SW 23:36:58 54° NW 23:42:12 10° NNE visible
02 Feb 8.7 01:19:51 10° NW 01:21:33 11° NNW 01:23:19 10° NNW visible
03 Feb 8.5 00:43:42 10° WNW 00:46:37 15° NW 00:49:41 10° N visible
04 Feb 8.2 00:08:05 10° W 00:11:44 20° NW 00:15:40 10° N visible
04 Feb 7.8 23:32:46 10° WSW 23:36:56 27° NW 23:41:29 10° NNE visible
07 Feb 8.6 00:10:29 10° NW 00:12:10 11° NNW 00:13:54 10° NNW visible
07 Feb 8.5 23:34:18 10° WNW 23:37:12 15° NW 23:40:16 10° N visible
